DW9996 Weather Reports


time (UTC)temp
F
wind
direction
speed
knots
gust
knots
rain 1hr
in
rain 24hr
in
rain mn
in
humidity
%
barometer
mb
20260901054528 59 138 1.7 4.3 0.00 0.00 0.00 53 1009.8
20260901053027 59 161 1.7 4.3 0.00 0.00 0.00 53 1009.9
20260901051528 59 161 1.7 3.5 0.00 0.00 0.00 49 1010.0
20260901050027 61 159 0.0 0.0 0.00 0.00 0.00 47 1010.0
20260901044526 62 159 0.0 0.0 0.00 0.00 0.00 45 1010.0
20260901043026 62 159 0.0 2.6 0.00 0.00 0.00 46 1010.0
20260901041526 61 164 0.0 0.0 0.00 0.00 0.00 46 1010.1
20260901040034 62 164 0.0 0.0 0.00 0.00 0.00 44 1010.1
20260901034524 64 165 0.9 1.7 0.00 0.00 0.00 43 1010.0
20260901033025 65 182 0.0 0.0 0.00 0.00 0.00 43 1009.8
20260901031524 64 182 0.0 0.0 0.00 0.00 0.00 44 1009.8
20260901030023 64 182 0.0 1.7 0.00 0.00 0.00 45 1009.7
20260901024528 66 192 0.9 1.7 0.00 0.00 0.00 43 1009.6
20260901023023 67 170 0.0 0.0 0.00 0.00 0.00 42 1009.5
20260901021522 68 170 0.0 0.0 0.00 0.00 0.00 40 1009.6
20260901020021 69 170 0.0 1.7 0.00 0.00 0.00 38 1009.6
20260901014520 70 181 0.9 3.5 0.00 0.00 0.00 37 1009.7
20260901013022 73 191 1.7 3.5 0.00 0.00 0.00 34 1009.6
20260901011521 74 223 1.7 5.2 0.00 0.00 0.00 34 1009.8
20260901010022 74 211 2.6 6.1 0.00 0.00 0.00 33 1009.8
20260901004531 75 277 2.6 6.1 0.00 0.00 0.00 33 1009.8
20260901003023 76 200 2.6 5.2 0.00 0.00 0.00 33 1009.9
20260901001524 76 214 4.3 7.8 0.00 0.00 0.00 33 1009.8
20260901000017 76 234 5.2 7.8 0.00 0.00 0.00 33 1009.8
20260831234517 76 266 2.6 11.3 0.00 0.00 0.00 33 1010.0
20260831233015 76 266 1.7 13.9 0.00 0.00 0.00 33 1010.0
20260831231515 76 238 1.7 6.1 0.00 0.00 0.00 34 1010.1
20260831230015 76 193 4.3 9.6 0.00 0.00 0.00 33 1010.2
20260831224514 76 282 1.7 6.1 0.00 0.00 0.00 33 1010.2
20260831223013 75 325 2.6 10.4 0.00 0.00 0.00 33 1010.4
20260831221523 76 194 2.6 6.1 0.00 0.00 0.00 34 1010.5
20260831220011 76 228 3.5 9.6 0.00 0.00 0.00 33 1010.4
20260831214529 76 248 3.5 9.6 0.00 0.00 0.00 33 1010.6
20260831213006 75 241 1.7 7.0 0.00 0.00 0.00 35 1010.6
20260831211505 75 340 3.5 7.8 0.00 0.00 0.00 34 1010.8
20260831210006 74 197 1.7 7.8 0.00 0.00 0.00 35 1010.7
20260831204504 74 302 4.3 9.6 0.00 0.00 0.00 35 1010.9
20260831203002 74 220 4.3 9.6 0.00 0.00 0.00 36 1011.1
20260831201505 74 248 4.3 9.6 0.00 0.00 0.00 36 1011.2
20260831200105 74 232 3.5 10.4 0.00 0.00 0.00 36 1011.1
20260831194557 73 228 4.3 7.8 0.00 0.00 0.00 37 1011.2
20260831193055 71 207 1.7 7.8 0.00 0.00 0.00 40 1011.4
20260831191554 72 296 2.6 8.7 0.00 0.00 0.00 41 1011.5
20260831190111 71 306 3.5 12.2 0.00 0.00 0.00 40 1011.9
20260831184555 71 325 4.3 10.4 0.00 0.00 0.00 40 1012.0
20260831183059 71 327 4.3 9.6 0.00 0.00 0.00 40 1012.2
20260831181550 70 293 4.3 9.6 0.00 0.00 0.00 42 1012.3
20260831180047 70 355 3.5 8.7 0.00 0.00 0.00 43 1012.5
20260831174545 69 306 5.2 13.0 0.00 0.00 0.00 44 1012.4
20260831173042 69 315 2.6 10.4 0.00 0.00 0.00 46 1012.4
20260831171543 68 332 4.3 14.8 0.00 0.00 0.00 46 1012.3
20260831170038 68 315 4.3 13.9 0.00 0.00 0.00 46 1012.4
20260831164538 68 333 5.2 10.4 0.00 0.00 0.00 47 1012.4
20260831163041 67 327 4.3 11.3 0.00 0.00 0.00 50 1012.3
20260831161533 65 308 4.3 12.2 0.00 0.00 0.00 53 1012.5
20260831160038 65 297 4.3 12.2 0.00 0.00 0.00 53 1012.3
20260831154533 65 333 5.2 12.2 0.00 0.00 0.00 51 1012.3
20260831153032 65 306 5.2 11.3 0.00 0.00 0.00 51 1012.4
20260831151525 64 305 3.5 11.3 0.00 0.00 0.00 50 1012.2
20260831150024 63 297 3.5 9.6 0.00 0.00 0.00 50 1012.1
20260831144521 61 302 4.3 9.6 0.00 0.00 0.00 53 1011.9
20260831143021 59 281 3.5 8.7 0.00 0.00 0.00 55 1011.8
20260831141508 58 288 4.3 10.4 0.00 0.00 0.00 57 1011.6
20260831140004 56 295 1.7 6.1 0.00 0.00 0.00 59 1011.4
20260831134505 56 277 2.6 7.8 0.00 0.00 0.00 59 1011.3
20260831133059 55 287 3.5 7.0 0.00 0.00 0.00 62 1011.0
20260831131600 53 287 4.3 10.4 0.00 0.00 0.00 64 1010.8
20260831124557 52 296 4.3 10.4 0.00 0.00 0.00 64 1010.4
20260831123051 53 290 4.3 10.4 0.00 0.00 0.00 63 1010.1
20260831121552 53 298 5.2 12.2 0.00 0.00 0.00 62 1010.0
20260831120056 53 303 6.1 12.2 0.00 0.00 0.00 63 1009.9
20260831114549 53 288 7.8 13.0 0.00 0.00 0.00 63 1010.0
20260831113107 54 260 5.2 12.2 0.00 0.00 0.00 62 1009.9
20260831111546 54 267 6.1 12.2 0.00 0.00 0.00 61 1009.7
20260831110046 54 282 7.0 14.8 0.00 0.00 0.00 62 1009.5
20260831104544 53 255 6.1 13.9 0.00 0.00 0.00 63 1009.5
20260831103048 52 302 7.0 12.2 0.00 0.00 0.00 65 1009.2
20260831101545 52 254 4.3 10.4 0.00 0.00 0.00 66 1009.2
20260831100040 51 284 4.3 10.4 0.00 0.00 0.00 67 1009.0
20260831094549 51 260 4.3 10.4 0.00 0.00 0.00 68 1008.9
20260831093035 51 231 3.5 7.0 0.00 0.00 0.00 68 1009.0
20260831091543 51 271 3.5 7.0 0.00 0.00 0.00 68 1009.1
20260831090038 51 256 3.5 10.4 0.00 0.00 0.00 67 1009.0
20260831084532 50 228 3.5 7.8 0.00 0.01 0.00 69 1008.8
20260831083024 51 239 3.5 7.8 0.00 0.01 0.00 68 1008.7
20260831081523 52 258 3.5 9.6 0.00 0.01 0.00 67 1008.4
20260831080030 52 257 5.2 12.2 0.00 0.01 0.00 67 1008.3
20260831074517 51 297 5.2 12.2 0.00 0.02 0.00 68 1008.2
20260831073015 52 263 3.5 9.6 0.00 0.02 0.00 67 1008.2
20260831071512 53 261 3.5 9.6 0.00 0.02 0.00 65 1008.2
20260831070012 53 261 4.3 9.6 0.00 0.02 0.00 64 1008.2
20260831064506 54 297 4.3 12.2 0.00 0.02 0.00 63 1008.2
20260831063004 55 286 5.2 12.2 0.00 0.02 0.00 61 1008.0
20260831061605 55 223 7.0 14.8 0.00 0.02 0.00 60 1008.1
20260831060057 55 277 4.3 10.4 0.00 0.02 0.00 60 1007.9